#datetime,building,power
2022-08-10T00:00:00,mcc,66.91
2022-08-10T00:01:00,mcc,65.91
2022-08-10T00:02:00,mcc,66.12
2022-08-10T00:03:00,mcc,65.70
2022-08-10T00:04:00,mcc,63.40
2022-08-10T00:05:00,mcc,59.08
2022-08-10T00:06:00,mcc,59.79
2022-08-10T00:07:00,mcc,57.13
2022-08-10T00:08:00,mcc,57.37
2022-08-10T00:09:00,mcc,55.44
2022-08-10T00:10:00,mcc,53.85
2022-08-10T00:11:00,mcc,53.20
2022-08-10T00:12:00,mcc,53.18
2022-08-10T00:13:00,mcc,53.17
2022-08-10T00:14:00,mcc,54.16
2022-08-10T00:15:00,mcc,54.64
2022-08-10T00:16:00,mcc,55.89
2022-08-10T00:17:00,mcc,51.27
2022-08-10T00:18:00,mcc,50.32
2022-08-10T00:19:00,mcc,49.07
2022-08-10T00:20:00,mcc,45.89
2022-08-10T00:21:00,mcc,48.10
2022-08-10T00:22:00,mcc,47.88
2022-08-10T00:23:00,mcc,51.73
2022-08-10T00:24:00,mcc,66.42
2022-08-10T00:25:00,mcc,50.97
2022-08-10T00:26:00,mcc,56.63
2022-08-10T00:27:00,mcc,47.97
2022-08-10T00:28:00,mcc,48.46
2022-08-10T00:29:00,mcc,48.04
2022-08-10T00:30:00,mcc,51.24
2022-08-10T00:31:00,mcc,47.00
2022-08-10T00:32:00,mcc,46.91
2022-08-10T00:33:00,mcc,48.53
2022-08-10T00:34:00,mcc,48.58
2022-08-10T00:35:00,mcc,48.75
2022-08-10T00:36:00,mcc,47.61
2022-08-10T00:37:00,mcc,48.06
2022-08-10T00:38:00,mcc,44.71
2022-08-10T00:39:00,mcc,46.60
2022-08-10T00:40:00,mcc,46.14
2022-08-10T00:41:00,mcc,45.47
2022-08-10T00:42:00,mcc,47.38
2022-08-10T00:43:00,mcc,45.52
2022-08-10T00:44:00,mcc,47.94
2022-08-10T00:45:00,mcc,49.04
2022-08-10T00:46:00,mcc,57.55
2022-08-10T00:47:00,mcc,48.52
2022-08-10T00:48:00,mcc,50.58
2022-08-10T00:49:00,mcc,49.70
2022-08-10T00:50:00,mcc,49.94
2022-08-10T00:51:00,mcc,52.20
2022-08-10T00:52:00,mcc,49.74
2022-08-10T00:53:00,mcc,47.51
2022-08-10T00:54:00,mcc,49.21
2022-08-10T00:55:00,mcc,47.81
2022-08-10T00:56:00,mcc,45.26
2022-08-10T00:57:00,mcc,45.95
2022-08-10T00:58:00,mcc,47.21
2022-08-10T00:59:00,mcc,48.16
2022-08-10T01:00:00,mcc,46.00
2022-08-10T01:01:00,mcc,47.14
2022-08-10T01:02:00,mcc,46.03
2022-08-10T01:03:00,mcc,46.06
2022-08-10T01:04:00,mcc,45.73
2022-08-10T01:05:00,mcc,44.35
2022-08-10T01:06:00,mcc,47.45
2022-08-10T01:07:00,mcc,45.99
2022-08-10T01:08:00,mcc,50.39
2022-08-10T01:09:00,mcc,47.37
2022-08-10T01:10:00,mcc,44.98
2022-08-10T01:11:00,mcc,43.57
2022-08-10T01:12:00,mcc,43.36
2022-08-10T01:13:00,mcc,45.75
2022-08-10T01:14:00,mcc,48.29
2022-08-10T01:15:00,mcc,49.69
2022-08-10T01:16:00,mcc,59.44
2022-08-10T01:17:00,mcc,46.38
2022-08-10T01:18:00,mcc,46.85
2022-08-10T01:19:00,mcc,47.31
2022-08-10T01:20:00,mcc,50.07
2022-08-10T01:21:00,mcc,47.09
2022-08-10T01:22:00,mcc,45.82
2022-08-10T01:23:00,mcc,46.23
2022-08-10T01:24:00,mcc,45.24
2022-08-10T01:25:00,mcc,55.49
2022-08-10T01:26:00,mcc,56.84
2022-08-10T01:27:00,mcc,56.69
2022-08-10T01:28:00,mcc,56.74
2022-08-10T01:29:00,mcc,48.22
2022-08-10T01:30:00,mcc,49.33
2022-08-10T01:31:00,mcc,47.06
2022-08-10T01:32:00,mcc,50.98
2022-08-10T01:33:00,mcc,54.89
2022-08-10T01:34:00,mcc,53.75
2022-08-10T01:35:00,mcc,54.15
2022-08-10T01:36:00,mcc,53.27
2022-08-10T01:37:00,mcc,51.11
2022-08-10T01:38:00,mcc,48.22
2022-08-10T01:39:00,mcc,48.94
2022-08-10T01:40:00,mcc,48.67
2022-08-10T01:41:00,mcc,47.27
2022-08-10T01:42:00,mcc,47.07
2022-08-10T01:43:00,mcc,46.81
2022-08-10T01:44:00,mcc,50.63
2022-08-10T01:45:00,mcc,55.98
2022-08-10T01:46:00,mcc,47.87
2022-08-10T01:47:00,mcc,45.77
2022-08-10T01:48:00,mcc,47.00
2022-08-10T01:49:00,mcc,45.73
2022-08-10T01:50:00,mcc,47.13
2022-08-10T01:51:00,mcc,49.46
2022-08-10T01:52:00,mcc,46.00
2022-08-10T01:53:00,mcc,46.02
2022-08-10T01:54:00,mcc,46.14
2022-08-10T01:55:00,mcc,46.05
2022-08-10T01:56:00,mcc,51.07
2022-08-10T01:57:00,mcc,45.51
2022-08-10T01:58:00,mcc,45.54
2022-08-10T01:59:00,mcc,44.80
2022-08-10T02:00:00,mcc,43.42
2022-08-10T02:01:00,mcc,45.12
2022-08-10T02:02:00,mcc,43.07
2022-08-10T02:03:00,mcc,47.11
2022-08-10T02:04:00,mcc,53.93
2022-08-10T02:05:00,mcc,46.22
2022-08-10T02:06:00,mcc,47.91
2022-08-10T02:07:00,mcc,46.53
2022-08-10T02:08:00,mcc,49.82
2022-08-10T02:09:00,mcc,47.28
2022-08-10T02:10:00,mcc,49.78
2022-08-10T02:11:00,mcc,47.44
2022-08-10T02:12:00,mcc,45.44
2022-08-10T02:13:00,mcc,44.94
2022-08-10T02:14:00,mcc,47.64
2022-08-10T02:15:00,mcc,48.04
2022-08-10T02:16:00,mcc,46.90
2022-08-10T02:17:00,mcc,45.57
2022-08-10T02:18:00,mcc,45.48
2022-08-10T02:19:00,mcc,44.32
2022-08-10T02:20:00,mcc,45.09
2022-08-10T02:21:00,mcc,45.19
2022-08-10T02:22:00,mcc,46.38
2022-08-10T02:23:00,mcc,54.64
2022-08-10T02:24:00,mcc,46.45
2022-08-10T02:25:00,mcc,45.77
2022-08-10T02:26:00,mcc,45.29
2022-08-10T02:27:00,mcc,44.26
2022-08-10T02:28:00,mcc,43.36
2022-08-10T02:29:00,mcc,46.10
2022-08-10T02:30:00,mcc,45.61
2022-08-10T02:31:00,mcc,47.14
2022-08-10T02:32:00,mcc,48.57
2022-08-10T02:33:00,mcc,48.29
2022-08-10T02:34:00,mcc,50.75
2022-08-10T02:35:00,mcc,47.83
2022-08-10T02:36:00,mcc,47.45
2022-08-10T02:37:00,mcc,60.07
2022-08-10T02:38:00,mcc,46.61
2022-08-10T02:39:00,mcc,47.29
2022-08-10T02:40:00,mcc,44.37
2022-08-10T02:41:00,mcc,44.99
2022-08-10T02:42:00,mcc,45.69
2022-08-10T02:43:00,mcc,55.50
2022-08-10T02:44:00,mcc,49.82
2022-08-10T02:45:00,mcc,48.38
2022-08-10T02:46:00,mcc,50.34
2022-08-10T02:47:00,mcc,46.88
2022-08-10T02:48:00,mcc,46.45
2022-08-10T02:49:00,mcc,46.95
2022-08-10T02:50:00,mcc,48.06
2022-08-10T02:51:00,mcc,49.71
2022-08-10T02:52:00,mcc,45.73
2022-08-10T02:53:00,mcc,47.34
2022-08-10T02:54:00,mcc,44.44
2022-08-10T02:55:00,mcc,46.23
2022-08-10T02:56:00,mcc,48.87
2022-08-10T02:57:00,mcc,48.76
2022-08-10T02:58:00,mcc,47.99
2022-08-10T02:59:00,mcc,48.02
2022-08-10T03:00:00,mcc,50.22
2022-08-10T03:01:00,mcc,48.83
2022-08-10T03:02:00,mcc,48.46
2022-08-10T03:03:00,mcc,55.54
2022-08-10T03:04:00,mcc,45.73
2022-08-10T03:05:00,mcc,46.23
2022-08-10T03:06:00,mcc,44.30
2022-08-10T03:07:00,mcc,47.00
2022-08-10T03:08:00,mcc,46.29
2022-08-10T03:09:00,mcc,46.25
2022-08-10T03:10:00,mcc,47.37
2022-08-10T03:11:00,mcc,49.17
2022-08-10T03:12:00,mcc,50.85
2022-08-10T03:13:00,mcc,49.87
2022-08-10T03:14:00,mcc,48.47
2022-08-10T03:15:00,mcc,48.44
2022-08-10T03:16:00,mcc,46.74
2022-08-10T03:17:00,mcc,48.84
2022-08-10T03:18:00,mcc,48.56
2022-08-10T03:19:00,mcc,50.34
2022-08-10T03:20:00,mcc,47.71
2022-08-10T03:21:00,mcc,48.93
2022-08-10T03:22:00,mcc,52.30
2022-08-10T03:23:00,mcc,57.66
2022-08-10T03:24:00,mcc,50.69
2022-08-10T03:25:00,mcc,48.56
2022-08-10T03:26:00,mcc,49.12
2022-08-10T03:27:00,mcc,50.01
2022-08-10T03:28:00,mcc,48.42
2022-08-10T03:29:00,mcc,47.63
2022-08-10T03:30:00,mcc,48.03
2022-08-10T03:31:00,mcc,50.66
2022-08-10T03:32:00,mcc,49.30
2022-08-10T03:33:00,mcc,48.81
2022-08-10T03:34:00,mcc,46.32
2022-08-10T03:35:00,mcc,46.34
2022-08-10T03:36:00,mcc,46.51
2022-08-10T03:37:00,mcc,46.42
2022-08-10T03:38:00,mcc,51.08
2022-08-10T03:39:00,mcc,49.09
2022-08-10T03:40:00,mcc,49.21
2022-08-10T03:41:00,mcc,49.00
2022-08-10T03:42:00,mcc,49.31
2022-08-10T03:43:00,mcc,48.63
2022-08-10T03:44:00,mcc,49.11
2022-08-10T03:45:00,mcc,50.54
2022-08-10T03:46:00,mcc,50.02
2022-08-10T03:47:00,mcc,49.34
2022-08-10T03:48:00,mcc,50.13
2022-08-10T03:49:00,mcc,48.00
2022-08-10T03:50:00,mcc,47.74
2022-08-10T03:51:00,mcc,46.61
2022-08-10T03:52:00,mcc,46.48
2022-08-10T03:53:00,mcc,45.54
2022-08-10T03:54:00,mcc,43.73
2022-08-10T03:55:00,mcc,45.85
2022-08-10T03:56:00,mcc,45.89
2022-08-10T03:57:00,mcc,47.68
2022-08-10T03:58:00,mcc,44.44
2022-08-10T03:59:00,mcc,45.21
2022-08-10T04:00:00,mcc,46.62
2022-08-10T04:01:00,mcc,66.87
2022-08-10T04:02:00,mcc,47.18
2022-08-10T04:03:00,mcc,45.18
2022-08-10T04:04:00,mcc,46.95
2022-08-10T04:05:00,mcc,58.20
2022-08-10T04:06:00,mcc,57.33
2022-08-10T04:07:00,mcc,45.85
2022-08-10T04:08:00,mcc,45.63
2022-08-10T04:09:00,mcc,47.22
2022-08-10T04:10:00,mcc,43.77
2022-08-10T04:11:00,mcc,45.42
2022-08-10T04:12:00,mcc,46.01
2022-08-10T04:13:00,mcc,46.44
2022-08-10T04:14:00,mcc,46.54
2022-08-10T04:15:00,mcc,44.51
2022-08-10T04:16:00,mcc,47.11
2022-08-10T04:17:00,mcc,45.17
2022-08-10T04:18:00,mcc,43.67
2022-08-10T04:19:00,mcc,44.91
2022-08-10T04:20:00,mcc,52.41
2022-08-10T04:21:00,mcc,47.52
2022-08-10T04:22:00,mcc,45.77
2022-08-10T04:23:00,mcc,48.96
2022-08-10T04:24:00,mcc,47.80
2022-08-10T04:25:00,mcc,45.87
2022-08-10T04:26:00,mcc,49.11
2022-08-10T04:27:00,mcc,45.80
2022-08-10T04:28:00,mcc,46.01
2022-08-10T04:29:00,mcc,43.48
2022-08-10T04:30:00,mcc,43.92
2022-08-10T04:31:00,mcc,44.96
2022-08-10T04:32:00,mcc,45.74
2022-08-10T04:33:00,mcc,47.92
2022-08-10T04:34:00,mcc,45.09
2022-08-10T04:35:00,mcc,48.43
2022-08-10T04:36:00,mcc,47.85
2022-08-10T04:37:00,mcc,47.09
2022-08-10T04:38:00,mcc,48.49
2022-08-10T04:39:00,mcc,48.47
2022-08-10T04:40:00,mcc,60.11
2022-08-10T04:41:00,mcc,48.23
2022-08-10T04:42:00,mcc,49.51
2022-08-10T04:43:00,mcc,45.42
2022-08-10T04:44:00,mcc,46.38
2022-08-10T04:45:00,mcc,46.25
2022-08-10T04:46:00,mcc,46.02
2022-08-10T04:47:00,mcc,46.87
2022-08-10T04:48:00,mcc,45.80
2022-08-10T04:49:00,mcc,47.08
2022-08-10T04:50:00,mcc,44.58
2022-08-10T04:51:00,mcc,46.87
2022-08-10T04:52:00,mcc,48.38
2022-08-10T04:53:00,mcc,49.24
2022-08-10T04:54:00,mcc,47.90
2022-08-10T04:55:00,mcc,47.86
2022-08-10T04:56:00,mcc,47.66
2022-08-10T04:57:00,mcc,49.03
2022-08-10T04:58:00,mcc,47.37
2022-08-10T04:59:00,mcc,48.13
2022-08-10T05:00:00,mcc,54.67
2022-08-10T05:01:00,mcc,47.08
2022-08-10T05:02:00,mcc,51.07
2022-08-10T05:03:00,mcc,50.80
2022-08-10T05:04:00,mcc,53.05
2022-08-10T05:05:00,mcc,50.30
2022-08-10T05:06:00,mcc,50.41
2022-08-10T05:07:00,mcc,51.97
2022-08-10T05:08:00,mcc,51.83
2022-08-10T05:09:00,mcc,60.00
2022-08-10T05:10:00,mcc,57.85
2022-08-10T05:11:00,mcc,58.80
2022-08-10T05:12:00,mcc,47.81
2022-08-10T05:13:00,mcc,48.77
2022-08-10T05:14:00,mcc,57.77
2022-08-10T05:15:00,mcc,47.75
2022-08-10T05:16:00,mcc,52.14
2022-08-10T05:17:00,mcc,49.32
2022-08-10T05:18:00,mcc,47.56
2022-08-10T05:19:00,mcc,48.59
2022-08-10T05:20:00,mcc,55.96
2022-08-10T05:21:00,mcc,49.43
2022-08-10T05:22:00,mcc,48.60
2022-08-10T05:23:00,mcc,51.66
2022-08-10T05:24:00,mcc,47.22
2022-08-10T05:25:00,mcc,45.72
2022-08-10T05:26:00,mcc,49.13
2022-08-10T05:27:00,mcc,53.00
2022-08-10T05:28:00,mcc,54.88
2022-08-10T05:29:00,mcc,51.57
2022-08-10T05:30:00,mcc,52.90
2022-08-10T05:31:00,mcc,48.67
2022-08-10T05:32:00,mcc,62.93
2022-08-10T05:33:00,mcc,51.44
2022-08-10T05:34:00,mcc,48.81
2022-08-10T05:35:00,mcc,51.51
2022-08-10T05:36:00,mcc,50.45
2022-08-10T05:37:00,mcc,48.27
2022-08-10T05:38:00,mcc,49.76
2022-08-10T05:39:00,mcc,48.30
2022-08-10T05:40:00,mcc,51.73
2022-08-10T05:41:00,mcc,49.02
2022-08-10T05:42:00,mcc,48.16
2022-08-10T05:43:00,mcc,49.63
2022-08-10T05:44:00,mcc,49.47
2022-08-10T05:45:00,mcc,50.10
2022-08-10T05:46:00,mcc,49.01
2022-08-10T05:47:00,mcc,47.98
2022-08-10T05:48:00,mcc,45.36
2022-08-10T05:49:00,mcc,45.63
2022-08-10T05:50:00,mcc,45.14
2022-08-10T05:51:00,mcc,46.39
2022-08-10T05:52:00,mcc,48.34
2022-08-10T05:53:00,mcc,45.80
2022-08-10T05:54:00,mcc,46.45
2022-08-10T05:55:00,mcc,44.86
2022-08-10T05:56:00,mcc,46.28
2022-08-10T05:57:00,mcc,45.86
2022-08-10T05:58:00,mcc,53.71
2022-08-10T05:59:00,mcc,47.93
2022-08-10T06:00:00,mcc,46.28
2022-08-10T06:01:00,mcc,44.87
2022-08-10T06:02:00,mcc,44.45
2022-08-10T06:03:00,mcc,45.56
2022-08-10T06:04:00,mcc,47.32
2022-08-10T06:05:00,mcc,47.00
2022-08-10T06:06:00,mcc,53.52
2022-08-10T06:07:00,mcc,66.28
2022-08-10T06:08:00,mcc,51.23
2022-08-10T06:09:00,mcc,53.08
2022-08-10T06:10:00,mcc,53.44
2022-08-10T06:11:00,mcc,53.84
2022-08-10T06:12:00,mcc,54.11
2022-08-10T06:13:00,mcc,54.27
2022-08-10T06:14:00,mcc,55.72
2022-08-10T06:15:00,mcc,54.70
2022-08-10T06:16:00,mcc,59.41
2022-08-10T06:17:00,mcc,64.92
2022-08-10T06:18:00,mcc,59.31
2022-08-10T06:19:00,mcc,64.55
2022-08-10T06:20:00,mcc,64.95
2022-08-10T06:21:00,mcc,67.20
2022-08-10T06:22:00,mcc,63.50
2022-08-10T06:23:00,mcc,63.60
2022-08-10T06:24:00,mcc,60.17
2022-08-10T06:25:00,mcc,59.82
2022-08-10T06:26:00,mcc,59.21
2022-08-10T06:27:00,mcc,60.01
2022-08-10T06:28:00,mcc,65.04
2022-08-10T06:29:00,mcc,73.72
2022-08-10T06:30:00,mcc,73.95
2022-08-10T06:31:00,mcc,73.01
2022-08-10T06:32:00,mcc,71.93
2022-08-10T06:33:00,mcc,73.93
2022-08-10T06:34:00,mcc,61.87
2022-08-10T06:35:00,mcc,64.42
2022-08-10T06:36:00,mcc,61.22
2022-08-10T06:37:00,mcc,74.48
2022-08-10T06:38:00,mcc,76.41
2022-08-10T06:39:00,mcc,76.62
2022-08-10T06:40:00,mcc,80.29
2022-08-10T06:41:00,mcc,78.98
2022-08-10T06:42:00,mcc,77.65
2022-08-10T06:43:00,mcc,74.68
2022-08-10T06:44:00,mcc,77.91
2022-08-10T06:45:00,mcc,78.80
2022-08-10T06:46:00,mcc,80.99
2022-08-10T06:47:00,mcc,79.38
2022-08-10T06:48:00,mcc,77.17
2022-08-10T06:49:00,mcc,76.70
2022-08-10T06:50:00,mcc,75.00
2022-08-10T06:51:00,mcc,73.61
2022-08-10T06:52:00,mcc,75.99
2022-08-10T06:53:00,mcc,74.08
2022-08-10T06:54:00,mcc,63.42
2022-08-10T06:55:00,mcc,62.05
2022-08-10T06:56:00,mcc,66.31
2022-08-10T06:57:00,mcc,68.99
2022-08-10T06:58:00,mcc,78.91
2022-08-10T06:59:00,mcc,70.84
2022-08-10T07:00:00,mcc,70.41
2022-08-10T07:01:00,mcc,68.89
2022-08-10T07:02:00,mcc,68.89
2022-08-10T07:03:00,mcc,71.05
2022-08-10T07:04:00,mcc,81.13
2022-08-10T07:05:00,mcc,73.40
2022-08-10T07:06:00,mcc,67.31
2022-08-10T07:07:00,mcc,66.57
2022-08-10T07:08:00,mcc,64.74
2022-08-10T07:09:00,mcc,63.95
2022-08-10T07:10:00,mcc,69.06
2022-08-10T07:11:00,mcc,71.71
2022-08-10T07:12:00,mcc,61.07
2022-08-10T07:13:00,mcc,61.63
2022-08-10T07:14:00,mcc,62.19
2022-08-10T07:15:00,mcc,69.95
2022-08-10T07:16:00,mcc,61.32
2022-08-10T07:17:00,mcc,63.78
2022-08-10T07:18:00,mcc,75.23
2022-08-10T07:19:00,mcc,76.64
2022-08-10T07:20:00,mcc,64.07
2022-08-10T07:21:00,mcc,64.63
2022-08-10T07:22:00,mcc,60.71
2022-08-10T07:23:00,mcc,61.25
2022-08-10T07:24:00,mcc,60.54
2022-08-10T07:25:00,mcc,62.39
2022-08-10T07:26:00,mcc,61.98
2022-08-10T07:27:00,mcc,59.15
2022-08-10T07:28:00,mcc,66.71
2022-08-10T07:29:00,mcc,66.96
2022-08-10T07:30:00,mcc,66.27
2022-08-10T07:31:00,mcc,68.32
2022-08-10T07:32:00,mcc,69.41
2022-08-10T07:33:00,mcc,69.76
2022-08-10T07:34:00,mcc,73.61
2022-08-10T07:35:00,mcc,62.96
2022-08-10T07:36:00,mcc,65.16
2022-08-10T07:37:00,mcc,61.22
2022-08-10T07:38:00,mcc,63.18
2022-08-10T07:39:00,mcc,61.26
2022-08-10T07:40:00,mcc,68.75
2022-08-10T07:41:00,mcc,62.16
2022-08-10T07:42:00,mcc,82.25
2022-08-10T07:43:00,mcc,66.14
2022-08-10T07:44:00,mcc,66.59
2022-08-10T07:45:00,mcc,74.89
2022-08-10T07:46:00,mcc,75.03
2022-08-10T07:47:00,mcc,66.43
2022-08-10T07:48:00,mcc,74.16
2022-08-10T07:49:00,mcc,63.85
2022-08-10T07:50:00,mcc,67.16
2022-08-10T07:51:00,mcc,66.60
2022-08-10T07:52:00,mcc,62.34
2022-08-10T07:53:00,mcc,63.72
2022-08-10T07:54:00,mcc,70.09
2022-08-10T07:55:00,mcc,64.94
2022-08-10T07:56:00,mcc,62.12
2022-08-10T07:57:00,mcc,69.94
2022-08-10T07:58:00,mcc,60.54
2022-08-10T07:59:00,mcc,71.45
2022-08-10T08:00:00,mcc,60.60
2022-08-10T08:01:00,mcc,63.29
2022-08-10T08:02:00,mcc,64.09
2022-08-10T08:03:00,mcc,70.60
2022-08-10T08:04:00,mcc,62.98
2022-08-10T08:05:00,mcc,61.16
2022-08-10T08:06:00,mcc,61.54
2022-08-10T08:07:00,mcc,63.25
2022-08-10T08:08:00,mcc,61.55
2022-08-10T08:09:00,mcc,81.65
2022-08-10T08:10:00,mcc,63.79
2022-08-10T08:11:00,mcc,66.97
2022-08-10T08:12:00,mcc,81.30
2022-08-10T08:13:00,mcc,65.24
2022-08-10T08:14:00,mcc,72.07
2022-08-10T08:15:00,mcc,74.02
2022-08-10T08:16:00,mcc,75.56
2022-08-10T08:17:00,mcc,77.46
2022-08-10T08:18:00,mcc,63.11
2022-08-10T08:19:00,mcc,60.01
2022-08-10T08:20:00,mcc,61.58
2022-08-10T08:21:00,mcc,61.68
2022-08-10T08:22:00,mcc,60.77
2022-08-10T08:23:00,mcc,70.25
2022-08-10T08:24:00,mcc,65.18
2022-08-10T08:25:00,mcc,61.53
2022-08-10T08:26:00,mcc,64.06
2022-08-10T08:27:00,mcc,69.56
2022-08-10T08:28:00,mcc,78.45
2022-08-10T08:29:00,mcc,61.93
2022-08-10T08:30:00,mcc,60.90
2022-08-10T08:31:00,mcc,62.91
2022-08-10T08:32:00,mcc,71.53
2022-08-10T08:33:00,mcc,74.30
2022-08-10T08:34:00,mcc,77.06
2022-08-10T08:35:00,mcc,77.26
2022-08-10T08:36:00,mcc,76.91
2022-08-10T08:37:00,mcc,68.05
2022-08-10T08:38:00,mcc,70.11
2022-08-10T08:39:00,mcc,68.16
2022-08-10T08:40:00,mcc,74.84
2022-08-10T08:41:00,mcc,64.81
2022-08-10T08:42:00,mcc,63.88
2022-08-10T08:43:00,mcc,74.63
2022-08-10T08:44:00,mcc,64.84
2022-08-10T08:45:00,mcc,69.18
2022-08-10T08:46:00,mcc,73.17
2022-08-10T08:47:00,mcc,66.95
2022-08-10T08:48:00,mcc,66.09
2022-08-10T08:49:00,mcc,73.23
2022-08-10T08:50:00,mcc,68.13
2022-08-10T08:51:00,mcc,73.86
2022-08-10T08:52:00,mcc,73.49
2022-08-10T08:53:00,mcc,66.26
2022-08-10T08:54:00,mcc,66.10
2022-08-10T08:55:00,mcc,68.27
2022-08-10T08:56:00,mcc,75.70
2022-08-10T08:57:00,mcc,70.01
2022-08-10T08:58:00,mcc,66.66
2022-08-10T08:59:00,mcc,72.13
2022-08-10T09:00:00,mcc,82.53
2022-08-10T09:01:00,mcc,69.87
2022-08-10T09:02:00,mcc,72.03
2022-08-10T09:03:00,mcc,71.74
2022-08-10T09:04:00,mcc,69.01
2022-08-10T09:05:00,mcc,69.66
2022-08-10T09:06:00,mcc,67.24
2022-08-10T09:07:00,mcc,68.15
2022-08-10T09:08:00,mcc,65.45
2022-08-10T09:09:00,mcc,82.54
2022-08-10T09:10:00,mcc,77.83
2022-08-10T09:11:00,mcc,68.35
2022-08-10T09:12:00,mcc,69.48
2022-08-10T09:13:00,mcc,69.65
2022-08-10T09:14:00,mcc,70.77
2022-08-10T09:15:00,mcc,68.30
2022-08-10T09:16:00,mcc,68.20
2022-08-10T09:17:00,mcc,66.71
2022-08-10T09:18:00,mcc,66.48
2022-08-10T09:19:00,mcc,67.83
2022-08-10T09:20:00,mcc,73.91
2022-08-10T09:21:00,mcc,67.17
2022-08-10T09:22:00,mcc,65.63
2022-08-10T09:23:00,mcc,66.45
2022-08-10T09:24:00,mcc,64.23
2022-08-10T09:25:00,mcc,64.40
2022-08-10T09:26:00,mcc,66.22
2022-08-10T09:27:00,mcc,63.89
2022-08-10T09:28:00,mcc,65.59
2022-08-10T09:29:00,mcc,74.32
2022-08-10T09:30:00,mcc,65.10
2022-08-10T09:31:00,mcc,71.24
2022-08-10T09:32:00,mcc,65.01
2022-08-10T09:33:00,mcc,68.16
2022-08-10T09:34:00,mcc,64.91
2022-08-10T09:35:00,mcc,67.89
2022-08-10T09:36:00,mcc,70.51
2022-08-10T09:37:00,mcc,74.15
2022-08-10T09:38:00,mcc,68.71
2022-08-10T09:39:00,mcc,66.44
2022-08-10T09:40:00,mcc,69.68
2022-08-10T09:41:00,mcc,69.72
2022-08-10T09:42:00,mcc,69.32
2022-08-10T09:43:00,mcc,70.85
2022-08-10T09:44:00,mcc,67.86
2022-08-10T09:45:00,mcc,67.17
2022-08-10T09:46:00,mcc,66.44
2022-08-10T09:47:00,mcc,68.42
2022-08-10T09:48:00,mcc,84.89
2022-08-10T09:49:00,mcc,65.10
2022-08-10T09:50:00,mcc,67.67
2022-08-10T09:51:00,mcc,66.86
2022-08-10T09:52:00,mcc,68.04
2022-08-10T09:53:00,mcc,67.80
2022-08-10T09:54:00,mcc,65.77
2022-08-10T09:55:00,mcc,69.28
2022-08-10T09:56:00,mcc,65.95
2022-08-10T09:57:00,mcc,65.46
2022-08-10T09:58:00,mcc,67.79
2022-08-10T09:59:00,mcc,75.74
2022-08-10T10:00:00,mcc,65.57
2022-08-10T10:01:00,mcc,68.71
2022-08-10T10:02:00,mcc,68.02
2022-08-10T10:03:00,mcc,65.77
2022-08-10T10:04:00,mcc,72.02
2022-08-10T10:05:00,mcc,63.02
2022-08-10T10:06:00,mcc,73.58
2022-08-10T10:07:00,mcc,78.43
2022-08-10T10:08:00,mcc,64.43
2022-08-10T10:09:00,mcc,65.82
2022-08-10T10:10:00,mcc,75.01
2022-08-10T10:11:00,mcc,66.30
2022-08-10T10:12:00,mcc,68.84
2022-08-10T10:13:00,mcc,67.24
2022-08-10T10:14:00,mcc,84.48
2022-08-10T10:15:00,mcc,72.61
2022-08-10T10:16:00,mcc,78.40
2022-08-10T10:17:00,mcc,75.27
2022-08-10T10:18:00,mcc,72.43
2022-08-10T10:19:00,mcc,73.84
2022-08-10T10:20:00,mcc,70.00
2022-08-10T10:21:00,mcc,76.55
2022-08-10T10:22:00,mcc,70.86
2022-08-10T10:23:00,mcc,69.83
2022-08-10T10:24:00,mcc,70.62
2022-08-10T10:25:00,mcc,77.95
2022-08-10T10:26:00,mcc,66.78
2022-08-10T10:27:00,mcc,75.67
2022-08-10T10:28:00,mcc,68.69
2022-08-10T10:29:00,mcc,69.65
2022-08-10T10:30:00,mcc,69.89
2022-08-10T10:31:00,mcc,68.80
2022-08-10T10:32:00,mcc,75.49
2022-08-10T10:33:00,mcc,67.22
2022-08-10T10:34:00,mcc,65.43
2022-08-10T10:35:00,mcc,65.59
2022-08-10T10:36:00,mcc,75.38
2022-08-10T10:37:00,mcc,72.94
2022-08-10T10:38:00,mcc,71.74
2022-08-10T10:39:00,mcc,71.41
2022-08-10T10:40:00,mcc,67.48
2022-08-10T10:41:00,mcc,71.66
2022-08-10T10:42:00,mcc,76.57
2022-08-10T10:43:00,mcc,71.56
2022-08-10T10:44:00,mcc,78.56
2022-08-10T10:45:00,mcc,78.98
2022-08-10T10:46:00,mcc,80.17
2022-08-10T10:47:00,mcc,68.51
2022-08-10T10:48:00,mcc,93.72
2022-08-10T10:49:00,mcc,76.21
2022-08-10T10:50:00,mcc,66.84
2022-08-10T10:51:00,mcc,75.85
2022-08-10T10:52:00,mcc,70.80
2022-08-10T10:53:00,mcc,62.49
2022-08-10T10:54:00,mcc,70.25
2022-08-10T10:55:00,mcc,71.84
2022-08-10T10:56:00,mcc,72.25
2022-08-10T10:57:00,mcc,60.54
2022-08-10T10:58:00,mcc,62.89
2022-08-10T10:59:00,mcc,61.35
2022-08-10T11:00:00,mcc,64.07
2022-08-10T11:01:00,mcc,65.24
2022-08-10T11:02:00,mcc,68.39
2022-08-10T11:03:00,mcc,75.33
2022-08-10T11:04:00,mcc,65.20
2022-08-10T11:05:00,mcc,64.01
2022-08-10T11:06:00,mcc,65.50
2022-08-10T11:07:00,mcc,74.65
2022-08-10T11:08:00,mcc,69.79
2022-08-10T11:09:00,mcc,68.34
2022-08-10T11:10:00,mcc,72.99
2022-08-10T11:11:00,mcc,71.89
2022-08-10T11:12:00,mcc,72.52
2022-08-10T11:13:00,mcc,70.42
2022-08-10T11:14:00,mcc,70.01
2022-08-10T11:15:00,mcc,71.35
2022-08-10T11:16:00,mcc,69.58
2022-08-10T11:17:00,mcc,69.65
2022-08-10T11:18:00,mcc,77.56
2022-08-10T11:19:00,mcc,66.34
2022-08-10T11:20:00,mcc,66.66
2022-08-10T11:21:00,mcc,66.50
2022-08-10T11:22:00,mcc,75.30
2022-08-10T11:23:00,mcc,74.61
2022-08-10T11:24:00,mcc,73.33
2022-08-10T11:25:00,mcc,66.22
2022-08-10T11:26:00,mcc,73.41
2022-08-10T11:27:00,mcc,67.72
2022-08-10T11:28:00,mcc,64.55
2022-08-10T11:29:00,mcc,76.32
2022-08-10T11:30:00,mcc,78.13
2022-08-10T11:31:00,mcc,77.19
2022-08-10T11:32:00,mcc,79.75
2022-08-10T11:33:00,mcc,67.56
2022-08-10T11:34:00,mcc,68.17
2022-08-10T11:35:00,mcc,72.47
2022-08-10T11:36:00,mcc,85.14
2022-08-10T11:37:00,mcc,78.14
2022-08-10T11:38:00,mcc,75.72
2022-08-10T11:39:00,mcc,75.67
2022-08-10T11:40:00,mcc,73.21
2022-08-10T11:41:00,mcc,81.11
2022-08-10T11:42:00,mcc,76.91
2022-08-10T11:43:00,mcc,72.53
2022-08-10T11:44:00,mcc,70.38
2022-08-10T11:45:00,mcc,69.75
2022-08-10T11:46:00,mcc,68.06
2022-08-10T11:47:00,mcc,71.00
2022-08-10T11:48:00,mcc,66.19
2022-08-10T11:49:00,mcc,67.24
2022-08-10T11:50:00,mcc,65.15
2022-08-10T11:51:00,mcc,73.17
2022-08-10T11:52:00,mcc,64.72
2022-08-10T11:53:00,mcc,65.29
2022-08-10T11:54:00,mcc,68.87
2022-08-10T11:55:00,mcc,65.86
2022-08-10T11:56:00,mcc,76.56
2022-08-10T11:57:00,mcc,67.08
2022-08-10T11:58:00,mcc,64.44
2022-08-10T11:59:00,mcc,75.27
2022-08-10T12:00:00,mcc,75.53
2022-08-10T12:01:00,mcc,68.31
2022-08-10T12:02:00,mcc,68.89
2022-08-10T12:03:00,mcc,69.49
2022-08-10T12:04:00,mcc,79.69
2022-08-10T12:05:00,mcc,71.04
2022-08-10T12:06:00,mcc,69.23
2022-08-10T12:07:00,mcc,68.81
2022-08-10T12:08:00,mcc,76.35
2022-08-10T12:09:00,mcc,66.99
2022-08-10T12:10:00,mcc,67.51
2022-08-10T12:11:00,mcc,67.57
2022-08-10T12:12:00,mcc,67.19
2022-08-10T12:13:00,mcc,66.18
2022-08-10T12:14:00,mcc,72.46
2022-08-10T12:15:00,mcc,64.58
2022-08-10T12:16:00,mcc,64.84
2022-08-10T12:17:00,mcc,68.78
2022-08-10T12:18:00,mcc,70.86
2022-08-10T12:19:00,mcc,69.58
2022-08-10T12:20:00,mcc,68.84
2022-08-10T12:21:00,mcc,69.20
2022-08-10T12:22:00,mcc,67.13
2022-08-10T12:23:00,mcc,71.15
2022-08-10T12:24:00,mcc,69.45
2022-08-10T12:25:00,mcc,78.58
2022-08-10T12:26:00,mcc,66.71
2022-08-10T12:27:00,mcc,78.28
2022-08-10T12:28:00,mcc,66.97
2022-08-10T12:29:00,mcc,67.14
2022-08-10T12:30:00,mcc,69.88
2022-08-10T12:31:00,mcc,67.48
2022-08-10T12:32:00,mcc,68.34
2022-08-10T12:33:00,mcc,70.42
2022-08-10T12:34:00,mcc,67.95
2022-08-10T12:35:00,mcc,68.20
2022-08-10T12:36:00,mcc,67.35
2022-08-10T12:37:00,mcc,68.51
2022-08-10T12:38:00,mcc,75.39
2022-08-10T12:39:00,mcc,82.88
2022-08-10T12:40:00,mcc,84.82
2022-08-10T12:41:00,mcc,68.03
2022-08-10T12:42:00,mcc,81.75
2022-08-10T12:43:00,mcc,73.26
2022-08-10T12:44:00,mcc,72.97
2022-08-10T12:45:00,mcc,75.50
2022-08-10T12:46:00,mcc,70.32
2022-08-10T12:47:00,mcc,71.84
2022-08-10T12:48:00,mcc,68.94
2022-08-10T12:49:00,mcc,67.23
2022-08-10T12:50:00,mcc,63.76
2022-08-10T12:51:00,mcc,64.24
2022-08-10T12:52:00,mcc,68.97
2022-08-10T12:53:00,mcc,75.42
2022-08-10T12:54:00,mcc,67.86
2022-08-10T12:55:00,mcc,68.98
2022-08-10T12:56:00,mcc,70.23
2022-08-10T12:57:00,mcc,72.80
2022-08-10T12:58:00,mcc,78.19
2022-08-10T12:59:00,mcc,71.11
2022-08-10T13:00:00,mcc,69.72
2022-08-10T13:01:00,mcc,76.16
2022-08-10T13:02:00,mcc,80.60
2022-08-10T13:03:00,mcc,83.02
2022-08-10T13:04:00,mcc,90.98
2022-08-10T13:05:00,mcc,80.48
2022-08-10T13:06:00,mcc,82.96
2022-08-10T13:07:00,mcc,82.46
2022-08-10T13:08:00,mcc,80.52
2022-08-10T13:09:00,mcc,83.03
2022-08-10T13:10:00,mcc,88.17
2022-08-10T13:11:00,mcc,80.58
2022-08-10T13:12:00,mcc,79.21
2022-08-10T13:13:00,mcc,79.41
2022-08-10T13:14:00,mcc,80.58
2022-08-10T13:15:00,mcc,85.97
2022-08-10T13:16:00,mcc,86.22
2022-08-10T13:17:00,mcc,80.62
2022-08-10T13:18:00,mcc,78.59